Regional Weather Roundup
Issued by NWS

Home | Current Version | Previous Version | Text Only | Print | Product List | Glossary On
Versions: 1 2 3 4 5 6 7 8 9 10 11 12 13 14 15 16 17 18 19 20 21 22 23 24 25 26 27
000
ASUS42 KFFC 190103
RWRGA
WEATHER ROUNDUP FOR GEORGIA
NATIONAL WEATHER SERVICE PEACHTREE CITY GA
900 PM EDT FRI APR 18 2014

NOTE: "FAIR" INDICATES FEW OR NO CLOUDS BELOW 12,000 FEET WITH NO
SIGNIFICANT WEATHER AND/OR OBSTRUCTIONS TO VISIBILITY.

* = USE WITH CAUTION. THE STATIONS MARKED WITH AN ASTERISK MAY NOT
REPORT WEATHER SUCH AS PRECIPITATION, FOG, OR THUNDER AND ARE NOT
QUALITY CONTROLLED BY NWS.

THE REMARK "TC" DENOTES TEMPERATURE READING IN DEGREES CELSIUS.

GAZ001>058-190200-
NORTH GEORGIA

CITY           SKY/WX    TMP DP  RH WIND       PRES   REMARKS
ATLANTA        RAIN      50  47  89 N10       30.16S FOG
ATHENS         LGT RAIN  49  47  93 NE8       30.14S
CHAMBLEE       RAIN      48  45  89 N10       30.16F FOG
PEACHTREE CITY RAIN      50  48  93 N9        30.14F FOG
ROME           LGT RAIN  54  53  97 S5        30.18R
WEST ATLANTA   RAIN      50  47  89 N9        30.17F FOG
GAINESVILLE    LGT RAIN  48  46  93 NE9       30.18R
CARTERSVILLE   RAIN      50  48  93 SE5       30.20R


CITY           SKY/WX    TMP DP  RH WIND       PRES   REMARKS
DALTON*        CLOUDY    55  50  82 CALM      30.16S
LAWRENCEVILLE* LGT RAIN  48  43  81 NE6       30.15S FOG
MARIETTA       LGT RAIN  49  49  98 VRB3      30.17F
KENNESAW*      RAIN      48  46  93 CALM      30.20R FOG
$$

GAZ059>098-102>109-190200-
CENTRAL GEORGIA

CITY           SKY/WX    TMP DP  RH WIND       PRES   REMARKS
AUGUSTA-BUSH   RAIN      52  49  89 NE15G23   30.11F FOG
AUGUSTA-DANIEL LGT RAIN  52  50  93 NE17G25   30.11F
COLUMBUS       RAIN      53  51  93 NE13G23   30.05F FOG
MACON          RAIN      52  51  97 NE16G23   30.03F FOG
ROBINS AFB     LGT RAIN  53  52  95 NE12G18   30.02F FOG


CITY           SKY/WX    TMP DP  RH WIND       PRES   REMARKS
LAGRANGE*      RAIN      52  51  96 NE7       30.12F
SYLVANIA*      RAIN      56  53  91 NE13G20   30.04F
MILLEDGEVILLE* RAIN      54  54 100 NE6       30.08F
$$

GAZ099>101-110>166-190200-
SOUTH GEORGIA

CITY           SKY/WX    TMP DP  RH WIND       PRES   REMARKS
SAVANNAH       LGT RAIN  58  56  93 NE15      29.97F
VALDOSTA       CLOUDY    61  56  83 E6        29.94R
ALMA           RAIN      56  53  90 NE9       29.95R FOG
ST SIMONS      LGT RAIN  61  60  97 NE10      29.94F
FT STEWART     LGT RAIN  57  57 100 NE12      29.94F
ALBANY         LGT RAIN  55  54  96 N7        30.00S FOG
HUNTER AFB     LGT RAIN  59  58  99 NE8       29.96F
MOODY AFB      LGT RAIN  57  57 100 NE6       29.94S FOG
BRUNSWICK      CLOUDY    61  59  94 NE13G18   29.95F


CITY           SKY/WX    TMP DP  RH WIND       PRES   REMARKS
BAINBRIDGE*    RAIN      59  57  94 N12G18    29.96S
MOULTRIE*      CLOUDY    55  55 100 NW5       29.96R
VIDALIA*       RAIN      54  54 100 NE12G22   30.04R
DOUGLAS*       LGT RAIN  55  55 100 E12G23    29.97R
$$



USA.gov is the U.S. government's official web portal to all federal, state and local government web resources and services.